• In Kazakhstan
  • List of Countries
  • For 7 days
  • Water Temperature
  • Satellite Maps
  • Weather Map
  • News
  • Weather Widgets
  • user-avatar
    Login

    Hourly Weather Diyarbakır

    Today, 17 August, Thursday

    Time Temperature Precipitation Wind Pressure Humidity
    00:00 +31°C° 0 mm 1 mps 699 mmHg 26%
    01:00 +31°C° 0 mm 1 mps 698 mmHg 27%
    02:00 +31°C° 0 mm 1 mps 698 mmHg 28%
    03:00 +30°C° 0 mm 1 mps 698 mmHg 29%
    04:00 +30°C° 0 mm 1 mps 698 mmHg 30%
    05:00 +29°C° 0 mm 1 mps 698 mmHg 31%
    06:00 +29°C° 0 mm 1 mps 698 mmHg 33%
    07:00 +31°C° 0 mm 1 mps 698 mmHg 29%
    08:00 +32°C° 0 mm 1 mps 698 mmHg 26%
    09:00 +34°C° 0 mm 1 mps 698 mmHg 23%
    10:00 +37°C° 0 mm 2 mps 698 mmHg 20%
    11:00 +38°C° 0 mm 3 mps 698 mmHg 17%
    12:00 +40°C° 0 mm 3 mps 698 mmHg 15%
    13:00 +41°C° 0 mm 4 mps 698 mmHg 13%
    14:00 +42°C° 0 mm 4 mps 698 mmHg 12%
    15:00 +43°C° 0 mm 5 mps 698 mmHg 10%
    16:00 +42°C° 0 mm 5 mps 697 mmHg 11%
    17:00 +41°C° 0 mm 5 mps 697 mmHg 11%
    18:00 +41°C° 0 mm 5 mps 697 mmHg 12%
    19:00 +38°C° 0 mm 4 mps 697 mmHg 14%
    20:00 +36°C° 0 mm 3 mps 698 mmHg 16%
    21:00 +35°C° 0 mm 3 mps 698 mmHg 18%
    22:00 +34°C° 0 mm 3 mps 698 mmHg 22%
    23:00 +33°C° 0 mm 3 mps 698 mmHg 25%

    Tomorrow, 18 August, Friday

    Time Temperature Precipitation Wind Pressure Humidity
    00:00 +33°C° 0 mm 3 mps 699 mmHg 28%
    01:00 +31°C° 0 mm 3 mps 699 mmHg 31%
    02:00 +30°C° 0 mm 2 mps 699 mmHg 34%
    03:00 +30°C° 0 mm 1 mps 699 mmHg 37%
    04:00 +29°C° 0 mm 1 mps 699 mmHg 38%
    05:00 +29°C° 0 mm 1 mps 699 mmHg 39%
    06:00 +28°C° 0 mm 1 mps 699 mmHg 40%
    07:00 +30°C° 0 mm 1 mps 700 mmHg 35%
    08:00 +32°C° 0 mm 2 mps 700 mmHg 31%
    09:00 +35°C° 0 mm 2 mps 701 mmHg 27%
    10:00 +37°C° 0 mm 3 mps 701 mmHg 23%
    11:00 +38°C° 0 mm 4 mps 701 mmHg 19%
    12:00 +41°C° 0 mm 5 mps 701 mmHg 14%
    13:00 +41°C° 0 mm 5 mps 701 mmHg 13%
    14:00 +41°C° 0 mm 6 mps 701 mmHg 12%
    15:00 +42°C° 0 mm 6 mps 700 mmHg 11%
    16:00 +41°C° 0 mm 6 mps 700 mmHg 11%
    17:00 +40°C° 0 mm 5 mps 700 mmHg 12%
    18:00 +40°C° 0 mm 5 mps 700 mmHg 13%
    19:00 +37°C° 0 mm 4 mps 700 mmHg 15%
    20:00 +35°C° 0 mm 3 mps 701 mmHg 17%
    21:00 +32°C° 0 mm 2 mps 701 mmHg 19%
    22:00 +31°C° 0 mm 2 mps 701 mmHg 21%
    23:00 +31°C° 0 mm 2 mps 701 mmHg 23%

    Day after tomorrow, 19 August, Saturday

    Time Temperature Precipitation Wind Pressure Humidity
    00:00 +30°C° 0 mm 2 mps 701 mmHg 26%
    01:00 +29°C° 0 mm 1 mps 701 mmHg 29%
    02:00 +28°C° 0 mm 1 mps 701 mmHg 32%
    03:00 +26°C° 0 mm 0 mps 701 mmHg 35%
    04:00 +25°C° 0 mm 0 mps 701 mmHg 35%
    05:00 +27°C° 0 mm 1 mps 701 mmHg 35%
    06:00 +27°C° 0 mm 1 mps 701 mmHg 36%
    07:00 +29°C° 0 mm 1 mps 702 mmHg 31%
    08:00 +31°C° 0 mm 1 mps 702 mmHg 26%
    09:00 +33°C° 0 mm 1 mps 703 mmHg 21%
    10:00 +36°C° 0 mm 2 mps 703 mmHg 17%
    11:00 +37°C° 0 mm 3 mps 703 mmHg 14%
    12:00 +39°C° 0 mm 3 mps 703 mmHg 10%
    13:00 +41°C° 0 mm 4 mps 703 mmHg 9%
    14:00 +41°C° 0 mm 4 mps 702 mmHg 8%
    15:00 +42°C° 0 mm 5 mps 702 mmHg 7%
    16:00 +41°C° 0 mm 5 mps 702 mmHg 8%
    17:00 +41°C° 0 mm 5 mps 702 mmHg 8%
    18:00 +40°C° 0 mm 5 mps 702 mmHg 9%
    19:00 +37°C° 0 mm 4 mps 702 mmHg 11%
    20:00 +35°C° 0 mm 3 mps 702 mmHg 13%
    21:00 +33°C° 0 mm 3 mps 702 mmHg 15%
    22:00 +31°C° 0 mm 2 mps 702 mmHg 17%
    23:00 +31°C° 0 mm 2 mps 702 mmHg 19%

    20 August, Sunday

    Time Temperature Precipitation Wind Pressure Humidity
    00:00 +30°C° 0 mm 2 mps 702 mmHg 21%
    01:00 +29°C° 0 mm 1 mps 702 mmHg 23%
    02:00 +29°C° 0 mm 1 mps 702 mmHg 25%
    03:00 +28°C° 0 mm 1 mps 702 mmHg 27%
    04:00 +28°C° 0 mm 1 mps 702 mmHg 27%
    05:00 +27°C° 0 mm 1 mps 702 mmHg 27%
    06:00 +27°C° 0 mm 1 mps 702 mmHg 27%
    07:00 +29°C° 0 mm 1 mps 702 mmHg 24%
    08:00 +32°C° 0 mm 1 mps 702 mmHg 20%
    09:00 +34°C° 0 mm 1 mps 703 mmHg 17%
    10:00 +37°C° 0 mm 2 mps 703 mmHg 15%
    11:00 +38°C° 0 mm 3 mps 703 mmHg 13%
    12:00 +40°C° 0 mm 3 mps 703 mmHg 10%
    13:00 +42°C° 0 mm 5 mps 703 mmHg 10%
    14:00 +44°C° 0 mm 6 mps 702 mmHg 10%
    15:00 +45°C° 0 mm 7 mps 702 mmHg 10%
    16:00 +44°C° 0 mm 7 mps 702 mmHg 11%
    17:00 +42°C° 0 mm 6 mps 701 mmHg 12%
    18:00 +41°C° 0 mm 6 mps 701 mmHg 13%
    19:00 +39°C° 0 mm 5 mps 701 mmHg 14%
    20:00 +37°C° 0 mm 4 mps 702 mmHg 16%
    21:00 +35°C° 0 mm 3 mps 702 mmHg 18%
    22:00 +34°C° 0 mm 2 mps 702 mmHg 20%
    23:00 +32°C° 0 mm 2 mps 701 mmHg 21%

    21 August, Monday

    Time Temperature Precipitation Wind Pressure Humidity
    00:00 +31°C° 0 mm 2 mps 701 mmHg 23%
    01:00 +31°C° 0 mm 1 mps 701 mmHg 24%
    02:00 +30°C° 0 mm 1 mps 701 mmHg 24%
    03:00 +29°C° 0 mm 1 mps 701 mmHg 24%
    04:00 +29°C° 0 mm 1 mps 701 mmHg 25%
    05:00 +29°C° 0 mm 1 mps 701 mmHg 25%
    06:00 +26°C° 0 mm 0 mps 701 mmHg 25%
    07:00 +31°C° 0 mm 1 mps 702 mmHg 22%
    08:00 +33°C° 0 mm 1 mps 702 mmHg 19%
    09:00 +35°C° 0 mm 1 mps 703 mmHg 16%
    10:00 +38°C° 0 mm 2 mps 702 mmHg 15%
    11:00 +39°C° 0 mm 3 mps 702 mmHg 14%
    12:00 +42°C° 0 mm 3 mps 702 mmHg 13%
    13:00 +43°C° 0 mm 4 mps 702 mmHg 13%
    14:00 +43°C° 0 mm 5 mps 701 mmHg 12%
    15:00 +45°C° 0 mm 5 mps 701 mmHg 11%
    16:00 +45°C° 0 mm 5 mps 701 mmHg 12%
    17:00 +43°C° 0 mm 5 mps 701 mmHg 13%
    18:00 +42°C° 0 mm 5 mps 700 mmHg 13%
    19:00 +41°C° 0 mm 4 mps 700 mmHg 15%
    20:00 +38°C° 0 mm 3 mps 700 mmHg 17%
    21:00 +36°C° 0 mm 2 mps 701 mmHg 19%
    22:00 +35°C° 0 mm 2 mps 700 mmHg 21%
    23:00 +34°C° 0 mm 2 mps 700 mmHg 22%

    22 August, Tuesday

    Time Temperature Precipitation Wind Pressure Humidity
    00:00 +32°C° 0 mm 2 mps 700 mmHg 23%
    01:00 +32°C° 0 mm 1 mps 700 mmHg 25%
    02:00 +31°C° 0 mm 1 mps 700 mmHg 26%
    03:00 +31°C° 0 mm 1 mps 700 mmHg 27%
    04:00 +30°C° 0 mm 1 mps 700 mmHg 27%
    05:00 +30°C° 0 mm 1 mps 700 mmHg 28%
    06:00 +29°C° 0 mm 1 mps 700 mmHg 28%
    07:00 +32°C° 0 mm 1 mps 700 mmHg 24%
    08:00 +34°C° 0 mm 1 mps 701 mmHg 21%
    09:00 +36°C° 0 mm 1 mps 701 mmHg 18%
    10:00 +39°C° 0 mm 2 mps 701 mmHg 16%
    11:00 +42°C° 0 mm 3 mps 701 mmHg 14%
    12:00 +43°C° 0 mm 4 mps 701 mmHg 13%
    13:00 +45°C° 0 mm 5 mps 700 mmHg 12%
    14:00 +46°C° 0 mm 5 mps 700 mmHg 10%
    15:00 +46°C° 0 mm 6 mps 700 mmHg 9%
    16:00 +46°C° 0 mm 6 mps 700 mmHg 9%
    17:00 +45°C° 0 mm 6 mps 699 mmHg 8%
    18:00 +44°C° 0 mm 6 mps 699 mmHg 8%
    19:00 +41°C° 0 mm 5 mps 699 mmHg 9%
    20:00 +38°C° 0 mm 4 mps 699 mmHg 10%
    21:00 +36°C° 0 mm 3 mps 699 mmHg 11%
    22:00 +35°C° 0 mm 2 mps 699 mmHg 12%
    23:00 +34°C° 0 mm 2 mps 699 mmHg 12%
    Show more